{"data":{"norad_id":38011,"epoch":"2026-09-20T04:19:43.523040Z","epoch_age_seconds":56850,"freshness":"FRESH","line1":"1 38011U 11076E   26263.18036485  .00000201  00000+0  31263-4 0  9993","line2":"2 38011  97.7971 321.2798 0001478  93.9505 350.4019 14.82663886798455","mean_motion":14.82663886,"eccentricity":0.0001478,"inclination_deg":97.7971,"raan_deg":321.2798,"arg_perigee_deg":93.9505,"mean_anomaly_deg":350.4019,"bstar":3.1263e-5,"rev_number":79845,"period_min":97.122484306602,"perigee_km":619.89367161569,"apogee_km":621.96259526914,"semimajor_km":6999.0651334424,"source":"CELESTRAK","updated_at":"2026-09-20T09:00:13.849118Z"}}